User: anonymous   Login
Location: East Fork Observatory
(32.9757°N, 94.4485°W)
Time: 17:08:59
(UTC-06:00)
Language:

ITUPSAT 1 - Orbit

View from above orbital plane
View from above orbital plane
View from above satellite
View from above satellite

Ground track
Ground track

The orbit data is extracted from the following two-line orbital elements,

1 35935U 09051E   19339.72677686 +.00000084 +00000-0 +30580-4 0  9996
2 35935 098.6117 152.8958 0008461 022.6865 337.4703 14.55572352541348
Epoch (UTC): 05 December 2019 17:26:33
Eccentricity: 0.0008461
inclination: 98.6117°
perigee height: 701 km
apogee height: 713 km
right ascension of ascending node: 152.8958°
argument of perigee: 22.6865°
revolutions per day: 14.55572352
mean anomaly at epoch: 337.4703°
orbit number at epoch: 54134

The dashed part of the orbit path shows where the satellite is in the earth's shadow,  

DLR